Home > Weather > Moss > Past weeks

Flag for Norway Past Weather in Moss, Norway — Yesterday and Last 2 Weeks

Now
63 °F

Clear.


Feels Like: 63 °F
Forecast: 62 / 72 °F
Wind: 2 mph from North

Location: Rygge

Current Time: Jul 24, 2016 at 1:07:51 AM

Latest Report: Jul 24, 2016 at 12:20 AM


Visibility: 10 mi

Pressure: 30.12 "Hg

Humidity: 83%

Dew Point: 57 °F

Location of MossLocation

Past Weather in Moss — Graph

°F

Moss Temperature Yesterday

Maximum temperature yesterday: 77 °F (at 1:20 PM)
Minimum temperature yesterday: 59 °F (at 2:50 AM)
Average temperature yesterday: 68 °F

High & Low Weather Summary for the Past Weeks

 TemperatureHumidityPressure
High79 °F (Jul 21, 2:20 PM)100% (Jul 9, 4:20 AM)30.15 "Hg (Jul 9, 4:20 AM)
Low52 °F (Jul 9, 12:50 AM)46% (Jul 9, 9:20 PM)29.45 "Hg (Jul 11, 1:20 PM)
Average64 °F78%29.85 "Hg
* Reported Jul 8 11:20 PM — Jul 23 11:20 PM, Moss, Weather by CustomWeather, © 2016

Note: Actual official high and low records may vary slightly from our data, if they occured in-between our weather recording intervals... More about our weather records

Advertising

Moss Weather History for the Previous 24 Hours

Scroll right to see more
 ConditionsComfort  
Time TempWeatherWind HumidityBarometerVisibility
11:20 PM
Sat, Jul 23
64 °FClear.6 mph83%30.12 "Hg10 mi
10:50 PM66 °FSunny.3 mph78%30.12 "Hg10 mi
10:20 PM66 °FSunny.5 mph78%30.12 "Hg10 mi
9:50 PM66 °FPassing clouds.6 mph78%30.12 "HgN/A
9:20 PM68 °FPassing clouds.6 mph78%30.12 "HgN/A
8:50 PM70 °FPassing clouds.5 mph69%30.12 "HgN/A
8:20 PM72 °FSunny.6 mph65%30.12 "Hg10 mi
7:50 PM72 °FSunny.5 mph69%30.12 "Hg10 mi
7:20 PM72 °FSunny.6 mph65%30.12 "Hg10 mi
6:50 PM72 °FSunny.6 mph65%30.12 "Hg10 mi
6:20 PM72 °FSunny.6 mph65%30.12 "Hg10 mi
5:50 PM72 °FSunny.7 mph73%30.12 "Hg10 mi
5:20 PM72 °FPassing clouds.6 mph65%30.12 "HgN/A
4:50 PM73 °FSunny.5 mph65%30.12 "Hg10 mi
4:20 PM73 °FSunny.6 mph65%30.15 "Hg10 mi
3:50 PM73 °FPassing clouds.5 mph65%30.15 "HgN/A
3:20 PM73 °FPassing clouds.6 mph65%30.15 "HgN/A
2:50 PM73 °FPassing clouds.5 mph65%30.15 "HgN/A
2:20 PM73 °FSunny.7 mph69%30.12 "Hg10 mi
1:50 PM75 °FPassing clouds.5 mph61%30.15 "HgN/A
1:20 PM77 °FSunny.3 mph57%30.15 "Hg10 mi
12:50 PM73 °FSunny.2 mph65%30.12 "Hg10 mi
12:20 PM73 °FSunny.1 mph65%30.12 "Hg10 mi
11:50 AM72 °FSunny.2 mph69%30.12 "Hg10 mi
11:20 AM72 °FSunny.3 mph69%30.12 "Hg10 mi
10:50 AM72 °FSunny.2 mph69%30.12 "Hg10 mi
10:20 AM72 °FPassing clouds.3 mph69%30.12 "HgN/A
9:50 AM72 °FSunny.5 mph73%30.12 "Hg10 mi
9:20 AM70 °FSunny.5 mph73%30.12 "Hg10 mi
8:50 AM68 °FSunny.3 mph83%30.12 "Hg10 mi
8:20 AM68 °FSunny.2 mph83%30.12 "Hg10 mi
7:50 AM64 °FSunny.2 mph94%30.12 "Hg10 mi
7:20 AM63 °FSunny.2 mph88%30.12 "Hg10 mi
6:50 AM63 °FSunny.2 mph94%30.12 "Hg10 mi
6:20 AM63 °FSunny.1 mph88%30.12 "Hg10 mi
5:50 AM63 °FMostly cloudy.1 mph88%30.12 "HgN/A
5:20 AM61 °FPassing clouds.1 mph94%30.09 "HgN/A
4:50 AM59 °FPassing clouds.3 mph94%30.09 "HgN/A
4:20 AM61 °FPassing clouds.3 mph94%30.12 "HgN/A
3:50 AM61 °FPassing clouds.3 mph94%30.09 "HgN/A
3:20 AM63 °FPassing clouds.5 mph88%30.09 "HgN/A
2:50 AM59 °FCool.3 mph100%30.12 "HgN/A
2:20 AM61 °FCool.1 mph94%30.12 "HgN/A
1:50 AM61 °FCool.1 mph94%30.12 "HgN/A
1:20 AM63 °FMild.3 mph88%30.12 "HgN/A
Weather by CustomWeather, © 2016

See weather overviewHow to use our weather pages